Retour au catalogue

STARLINK-30788

ActifCommunicationsVLEO
NORAD 58159·PAYLOAD·🇺🇸 United States

Lancé Oct 29, 2023 depuis Vandenberg Space Force Base

Loading…

Prochains Passages (prochaines 24 heures)

TLE

FraisSource: CelesTrak SupGP

Époque: Sep 15, 2026, 03:24 UTC

1 58159C 23166K   26258.14215278 -.00025115  00000+0 -80793-3 0  2582
2 58159  53.1581  58.3723 0001135  95.0585 242.1705 15.31703638    12

Suivez STARLINK-30788 en temps réel avec AllMySat

Download on the App Store